Flag for Norway Weather past 2 weeks in Mysen, Norway

Now
68 °F

Scattered clouds.


Feels Like: 68 °F
Forecast: 49 / 60 °F
Wind: 2 mph from North

Location: Rygge

Current Time: Aug 29, 2014 at 1:13:32 PM

Latest Report: Aug 29, 2014 at 12:50 PM


Visibility: N/A

Pressure: 29.98 "Hg

Humidity: 60%

Dew point: 54 °F

Location of MysenLocation

Historic Weather in Mysen — Graph

°F

Mysen temperature yesterday

Maximum temperature yesterday: 70 °F (at 5:20 PM)
Minimum temperature yesterday: 54 °F (at 10:50 PM)
Average temperature yesterday: 61 °F

Past Weeks' High & Low Weather Summary

 TemperatureHumidityPressure
High72 °F (Aug 15, 5:50 PM)100% (Aug 14, 10:20 PM)29.98 "Hg (Aug 14, 10:20 PM)
Low45 °F (Aug 24, 6:50 AM)38% (Aug 27, 4:20 PM)29.18 "Hg (Aug 18, 12:50 PM)
Average58 °F78%29.61 "Hg
* Reported Aug 14 11:20 AM — Aug 29 11:50 AM, Mysen, Weather by CustomWeather, © 2014

Note: Actual official high and low records may vary slightly from our data, if they occured in-between our weather recording intervals... More about our weather records

Advertising

Mysen weather history for previous 24 hours

 ConditionsComfort  
Time TempWeatherWind HumidityBarometerVisibility
11:50 AM
Aug 29
66 °FSunny.3 mph64%29.98 "Hg10 mi
11:20 AM64 °FPassing clouds.5 mph64%29.98 "HgN/A
10:50 AM64 °FPassing clouds.6 mph64%29.98 "HgN/A
10:20 AM63 °FPassing clouds.3 mph73%29.98 "HgN/A
9:50 AM61 °FSunny.2 mph77%29.98 "Hg10 mi
9:20 AM57 °FSunny.2 mph82%29.98 "Hg10 mi
8:50 AM54 °FSunny.3 mph88%29.98 "Hg10 mi
8:20 AM52 °FSunny.2 mph94%29.98 "Hg10 mi
7:50 AM50 °FSunny.2 mph94%29.98 "Hg10 mi
7:20 AM50 °FSunny.No wind94%29.98 "Hg10 mi
6:50 AM48 °FPassing clouds.2 mph100%29.98 "HgN/A
6:20 AM48 °FClear.3 mph94%29.98 "Hg10 mi
5:50 AM46 °FPassing clouds.2 mph100%29.98 "HgN/A
5:20 AM46 °FOvercast.2 mph100%29.98 "HgN/A
4:50 AM46 °FPassing clouds.1 mph100%29.98 "HgN/A
4:20 AM46 °FCool.1 mph100%29.98 "HgN/A
3:50 AM46 °FCool.1 mph100%29.98 "HgN/A
3:20 AM48 °FFog.2 mph94%29.98 "Hg2 mi
2:50 AM48 °FCool.3 mph100%29.98 "HgN/A
2:20 AM48 °FCool.3 mph100%29.98 "HgN/A
1:50 AM52 °FClear.2 mph94%29.98 "Hg10 mi
1:20 AM50 °FClear.3 mph94%29.98 "Hg10 mi
12:50 AM52 °FClear.1 mph88%29.98 "Hg10 mi
12:20 AM52 °FClear.2 mph88%29.98 "Hg10 mi
11:50 PM
Aug 28
54 °FClear.3 mph88%29.98 "Hg10 mi
11:20 PM54 °FClear.3 mph82%29.98 "Hg10 mi
10:50 PM54 °FClear.2 mph82%29.98 "Hg10 mi
10:20 PM57 °FClear.1 mph72%29.98 "Hg10 mi
9:50 PM57 °FClear.2 mph72%29.98 "Hg10 mi
9:20 PM61 °FSunny.2 mph59%29.98 "Hg10 mi
8:50 PM63 °FSunny.3 mph56%29.98 "Hg10 mi
8:20 PM63 °FSunny.5 mph56%29.95 "Hg10 mi
7:50 PM64 °FSunny.6 mph52%29.95 "Hg10 mi
7:20 PM64 °FSunny.8 mph52%29.95 "Hg10 mi
6:50 PM66 °FSunny.9 mph52%29.95 "Hg10 mi
6:20 PM66 °FPassing clouds.8 mph52%29.95 "HgN/A
5:50 PM68 °FPassing clouds.3 mph46%29.95 "HgN/A
5:20 PM70 °FSunny.2 mph43%29.95 "Hg10 mi
4:50 PM68 °FPassing clouds.5 mph46%29.98 "HgN/A
4:20 PM68 °FPassing clouds.6 mph46%29.98 "HgN/A
3:50 PM68 °FPassing clouds.3 mph49%29.98 "HgN/A
3:20 PM68 °FPassing clouds.6 mph46%29.98 "HgN/A
2:50 PM68 °FSunny.3 mph46%29.98 "Hg10 mi
2:20 PM68 °FSunny.3 mph43%29.98 "Hg10 mi
1:50 PM66 °FSunny.3 mph46%29.98 "Hg10 mi
1:20 PM66 °FSunny.2 mph46%29.98 "Hg10 mi
Weather by CustomWeather, © 2014

See weather overviewHow to use our weather pages